| time (UTC) | temp C | wind direction | speed KPH | gust KPH | rain 1hr cm | rain 24hr cm | rain mn cm | humidity % | barometer mb |
| 20260505051514 | 15 | 0 | 1.6 | 8.0 | 0.00 | 0.00 | 0.00 | 63 | 984.7 |
| 20260505051013 | 15 | 318 | 3.2 | 8.0 | 0.00 | 0.00 | 0.00 | 63 | 984.6 |
| 20260505050512 | 15 | 139 | 3.2 | 8.0 | 0.00 | 0.00 | 0.00 | 61 | 984.6 |
| 20260505041729 | 16 | 266 | 3.2 | 8.0 | 0.00 | 0.00 | 0.00 | 57 | 984.6 |
| 20260505041230 | 16 | 193 | 1.6 | 6.4 | 0.00 | 0.00 | 0.00 | 58 | 984.4 |
| 20260505040730 | 16 | 322 | 1.6 | 6.4 | 0.00 | 0.00 | 0.00 | 57 | 984.4 |
| 20260505040518 | 16 | 279 | 1.6 | 6.4 | 0.00 | 0.00 | 0.00 | 56 | 984.4 |
| 20260505035731 | 16 | 326 | 1.6 | 6.4 | 0.00 | 0.00 | 0.00 | 56 | 984.5 |
| 20260505035514 | 16 | 155 | 1.6 | 9.7 | 0.00 | 0.00 | 0.00 | 56 | 984.4 |
| 20260505034730 | 16 | 144 | 1.6 | 9.7 | 0.00 | 0.00 | 0.00 | 56 | 984.3 |
| 20260505034516 | 16 | 166 | 3.2 | 9.7 | 0.00 | 0.00 | 0.00 | 55 | 984.2 |
| 20260505034016 | 16 | 207 | 3.2 | 9.7 | 0.00 | 0.00 | 0.00 | 54 | 984.1 |
| 20260505033229 | 17 | 141 | 3.2 | 9.7 | 0.00 | 0.00 | 0.00 | 55 | 984.1 |
| 20260505032729 | 17 | 168 | 3.2 | 12.9 | 0.00 | 0.00 | 0.00 | 53 | 984.2 |
| 20260505032229 | 17 | 220 | 3.2 | 12.9 | 0.00 | 0.00 | 0.00 | 53 | 984.3 |
| 20260505031729 | 17 | 255 | 3.2 | 8.0 | 0.00 | 0.00 | 0.00 | 53 | 984.2 |
| 20260505031231 | 17 | 185 | 3.2 | 8.0 | 0.00 | 0.00 | 0.00 | 53 | 984.2 |
| 20260505030730 | 17 | 202 | 3.2 | 8.0 | 0.00 | 0.00 | 0.00 | 52 | 984.3 |
| 20260505030230 | 17 | 259 | 3.2 | 8.0 | 0.00 | 0.00 | 0.00 | 52 | 984.3 |
| 20260505025730 | 17 | 203 | 4.8 | 11.3 | 0.00 | 0.00 | 0.00 | 52 | 984.3 |
| 20260505025230 | 17 | 184 | 3.2 | 11.3 | 0.00 | 0.00 | 0.00 | 52 | 984.3 |
| 20260505025013 | 17 | 158 | 3.2 | 9.7 | 0.00 | 0.00 | 0.00 | 53 | 984.4 |
| 20260505024520 | 17 | 251 | 3.2 | 9.7 | 0.00 | 0.00 | 0.00 | 52 | 984.4 |
| 20260505023729 | 17 | 212 | 3.2 | 8.0 | 0.00 | 0.00 | 0.00 | 52 | 984.4 |
| 20260505023516 | 17 | 286 | 3.2 | 8.0 | 0.00 | 0.00 | 0.00 | 52 | 984.4 |
| 20260505022729 | 17 | 217 | 3.2 | 9.7 | 0.00 | 0.00 | 0.00 | 52 | 984.4 |
| 20260505022230 | 16 | 0 | 3.2 | 9.7 | 0.00 | 0.00 | 0.00 | 52 | 984.3 |
| 20260505021731 | 16 | 320 | 3.2 | 9.7 | 0.00 | 0.00 | 0.00 | 52 | 984.5 |
| 20260505021230 | 16 | 181 | 1.6 | 8.0 | 0.00 | 0.00 | 0.00 | 53 | 984.6 |
| 20260505020731 | 16 | 306 | 1.6 | 6.4 | 0.00 | 0.00 | 0.00 | 54 | 984.7 |
| 20260505020231 | 16 | 220 | 1.6 | 9.7 | 0.00 | 0.00 | 0.00 | 55 | 984.7 |
| 20260505020013 | 16 | 250 | 1.6 | 9.7 | 0.00 | 0.00 | 0.00 | 54 | 984.8 |
| 20260505015232 | 16 | 0 | 1.6 | 6.4 | 0.00 | 0.00 | 0.00 | 54 | 984.7 |
| 20260505015017 | 16 | 107 | 1.6 | 4.8 | 0.00 | 0.00 | 0.00 | 52 | 984.7 |
| 20260505014230 | 17 | 4 | 1.6 | 6.4 | 0.00 | 0.00 | 0.00 | 52 | 984.7 |
| 20260505013731 | 17 | 209 | 3.2 | 6.4 | 0.00 | 0.00 | 0.00 | 50 | 984.7 |
| 20260505013232 | 17 | 20 | 1.6 | 4.8 | 0.00 | 0.00 | 0.00 | 50 | 984.6 |
| 20260505012731 | 17 | 48 | 3.2 | 8.0 | 0.00 | 0.00 | 0.00 | 49 | 984.4 |
| 20260505012232 | 17 | 148 | 3.2 | 8.0 | 0.00 | 0.00 | 0.00 | 48 | 984.4 |
| 20260505011732 | 17 | 148 | 3.2 | 8.0 | 0.00 | 0.00 | 0.00 | 49 | 984.3 |
| 20260505011230 | 17 | 139 | 3.2 | 8.0 | 0.00 | 0.00 | 0.00 | 47 | 984.3 |
| 20260505010731 | 17 | 306 | 3.2 | 8.0 | 0.00 | 0.00 | 0.00 | 47 | 984.2 |
| 20260505010519 | 17 | 215 | 3.2 | 9.7 | 0.00 | 0.00 | 0.00 | 47 | 984.2 |
| 20260505010056 | 18 | 159 | 3.2 | 11.3 | 0.00 | 0.00 | 0.00 | 46 | 984.1 |
| 20260505005754 | 17 | 278 | 3.2 | 11.3 | 0.00 | 0.00 | 0.00 | 46 | 984.2 |
| 20260505004728 | 17 | 210 | 3.2 | 11.3 | 0.00 | 0.00 | 0.00 | 47 | 984.1 |
| 20260505004227 | 18 | 147 | 1.6 | 6.4 | 0.00 | 0.00 | 0.00 | 46 | 984.1 |
| 20260505003724 | 18 | 205 | 3.2 | 8.0 | 0.00 | 0.00 | 0.00 | 46 | 984.1 |
| 20260505003224 | 18 | 214 | 3.2 | 8.0 | 0.00 | 0.00 | 0.00 | 46 | 984.0 |
| 20260505002723 | 18 | 160 | 3.2 | 9.7 | 0.00 | 0.00 | 0.00 | 45 | 984.0 |
| 20260505002224 | 18 | 310 | 3.2 | 9.7 | 0.00 | 0.00 | 0.00 | 45 | 983.9 |
| 20260505001724 | 18 | 208 | 4.8 | 9.7 | 0.00 | 0.00 | 0.00 | 45 | 983.9 |
| 20260505001224 | 18 | 226 | 4.8 | 11.3 | 0.00 | 0.00 | 0.00 | 45 | 983.9 |
| 20260505000724 | 18 | 267 | 4.8 | 11.3 | 0.00 | 0.00 | 0.00 | 45 | 983.9 |
| 20260505000226 | 18 | 190 | 3.2 | 9.7 | 0.00 | 0.00 | 0.00 | 45 | 983.9 |
| 20260504235725 | 18 | 0 | 3.2 | 9.7 | 0.00 | 0.00 | 0.00 | 45 | 983.9 |
| 20260504235222 | 18 | 200 | 4.8 | 9.7 | 0.00 | 0.00 | 0.00 | 44 | 983.8 |
| 20260504234722 | 18 | 162 | 4.8 | 11.3 | 0.00 | 0.00 | 0.00 | 44 | 983.8 |
| 20260504234511 | 18 | 134 | 4.8 | 11.3 | 0.00 | 0.00 | 0.00 | 44 | 983.8 |
| 20260504234010 | 19 | 193 | 3.2 | 11.3 | 0.00 | 0.00 | 0.00 | 44 | 983.7 |
| 20260504233221 | 19 | 280 | 4.8 | 17.7 | 0.00 | 0.00 | 0.00 | 44 | 983.7 |
| 20260504233010 | 19 | 218 | 6.4 | 17.7 | 0.00 | 0.00 | 0.00 | 44 | 983.6 |
| 20260504232222 | 19 | 180 | 6.4 | 17.7 | 0.00 | 0.00 | 0.00 | 44 | 983.7 |
| 20260504231722 | 19 | 222 | 6.4 | 17.7 | 0.00 | 0.00 | 0.00 | 43 | 983.7 |
| 20260504231223 | 19 | 164 | 6.4 | 16.1 | 0.00 | 0.00 | 0.00 | 43 | 983.7 |
| 20260504231012 | 20 | 188 | 6.4 | 20.9 | 0.00 | 0.00 | 0.00 | 44 | 983.7 |
| 20260504230222 | 20 | 318 | 6.4 | 20.9 | 0.00 | 0.15 | 0.00 | 42 | 983.7 |
| 20260504225719 | 20 | 222 | 6.4 | 20.9 | 0.00 | 0.15 | 0.00 | 42 | 983.7 |
| 20260504225219 | 20 | 263 | 6.4 | 20.9 | 0.00 | 0.15 | 0.00 | 42 | 983.7 |
| 20260504224720 | 20 | 183 | 6.4 | 20.9 | 0.00 | 0.15 | 0.00 | 42 | 983.6 |
| 20260504224220 | 20 | 197 | 6.4 | 14.5 | 0.00 | 0.15 | 0.00 | 43 | 983.7 |
| 20260504223719 | 20 | 182 | 8.0 | 14.5 | 0.00 | 0.15 | 0.00 | 40 | 983.7 |
| 20260504223220 | 20 | 307 | 8.0 | 22.5 | 0.00 | 0.15 | 0.00 | 40 | 983.7 |
| 20260504223009 | 20 | 289 | 8.0 | 22.5 | 0.00 | 0.15 | 0.00 | 42 | 983.7 |
| 20260504222219 | 20 | 159 | 8.0 | 19.3 | 0.00 | 0.15 | 0.00 | 41 | 983.6 |
| 20260504221720 | 20 | 220 | 8.0 | 19.3 | 0.00 | 0.15 | 0.00 | 41 | 983.7 |
| 20260504221220 | 20 | 149 | 8.0 | 19.3 | 0.00 | 0.15 | 0.00 | 40 | 983.8 |
| 20260504220720 | 20 | 202 | 8.0 | 19.3 | 0.00 | 0.18 | 0.00 | 39 | 983.8 |
| 20260504220220 | 20 | 173 | 6.4 | 19.3 | 0.00 | 0.18 | 0.00 | 41 | 983.8 |
| 20260504220009 | 20 | 294 | 8.0 | 19.3 | 0.00 | 0.18 | 0.00 | 39 | 983.8 |
| 20260504215218 | 21 | 208 | 6.4 | 14.5 | 0.00 | 0.18 | 0.00 | 39 | 983.9 |
| 20260504215007 | 20 | 241 | 8.0 | 24.1 | 0.00 | 0.18 | 0.00 | 39 | 983.8 |
| 20260504214217 | 20 | 220 | 9.7 | 24.1 | 0.00 | 0.18 | 0.00 | 41 | 983.8 |
| 20260504214007 | 21 | 175 | 6.4 | 14.5 | 0.00 | 0.18 | 0.00 | 39 | 983.8 |
| 20260504213218 | 21 | 201 | 6.4 | 14.5 | 0.00 | 0.18 | 0.00 | 41 | 983.8 |
| 20260504212719 | 20 | 230 | 6.4 | 14.5 | 0.00 | 0.18 | 0.00 | 41 | 983.8 |
| 20260504212218 | 20 | 200 | 6.4 | 14.5 | 0.00 | 0.18 | 0.00 | 40 | 983.8 |
| 20260504211718 | 20 | 260 | 6.4 | 17.7 | 0.00 | 0.18 | 0.00 | 40 | 983.8 |
| 20260504211218 | 20 | 169 | 6.4 | 17.7 | 0.00 | 0.18 | 0.00 | 41 | 983.9 |
| 20260504210719 | 21 | 182 | 6.4 | 17.7 | 0.00 | 0.18 | 0.00 | 42 | 983.8 |
| 20260504210216 | 20 | 226 | 6.4 | 17.7 | 0.00 | 0.18 | 0.00 | 43 | 983.8 |
| 20260504205712 | 21 | 176 | 6.4 | 14.5 | 0.00 | 0.18 | 0.00 | 40 | 983.8 |
| 20260504205213 | 20 | 229 | 6.4 | 14.5 | 0.00 | 0.18 | 0.00 | 40 | 983.8 |
| 20260504204712 | 21 | 213 | 6.4 | 16.1 | 0.00 | 0.18 | 0.00 | 39 | 983.8 |
| 20260504204212 | 21 | 252 | 8.0 | 16.1 | 0.00 | 0.18 | 0.00 | 41 | 983.8 |
| 20260504203713 | 21 | 292 | 4.8 | 11.3 | 0.00 | 0.18 | 0.00 | 38 | 983.8 |
| 20260504203213 | 21 | 194 | 4.8 | 12.9 | 0.00 | 0.18 | 0.00 | 40 | 983.9 |
| 20260504202713 | 21 | 231 | 6.4 | 14.5 | 0.00 | 0.18 | 0.00 | 40 | 983.9 |
| 20260504202213 | 20 | 265 | 6.4 | 14.5 | 0.00 | 0.18 | 0.00 | 40 | 984.0 |
| 20260504201713 | 20 | 184 | 8.0 | 22.5 | 0.00 | 0.18 | 0.00 | 43 | 984.0 |
| 20260504201213 | 20 | 227 | 9.7 | 22.5 | 0.00 | 0.18 | 0.00 | 42 | 984.1 |
| 20260504201007 | 20 | 309 | 6.4 | 19.3 | 0.00 | 0.18 | 0.00 | 42 | 984.1 |
| 20260504200211 | 21 | 146 | 6.4 | 19.3 | 0.00 | 0.18 | 0.00 | 39 | 984.2 |
| 20260504195707 | 21 | 58 | 6.4 | 19.3 | 0.00 | 0.18 | 0.00 | 38 | 984.3 |
| 20260504195207 | 21 | 217 | 6.4 | 14.5 | 0.00 | 0.18 | 0.00 | 41 | 984.3 |
| 20260504194957 | 21 | 161 | 6.4 | 17.7 | 0.00 | 0.18 | 0.00 | 42 | 984.3 |
| 20260504194208 | 21 | 182 | 8.0 | 17.7 | 0.00 | 0.18 | 0.00 | 42 | 984.4 |
| 20260504193958 | 21 | 299 | 8.0 | 17.7 | 0.00 | 0.18 | 0.00 | 39 | 984.3 |
| 20260504193208 | 21 | 175 | 6.4 | 14.5 | 0.00 | 0.18 | 0.00 | 38 | 984.5 |
| 20260504192711 | 21 | 199 | 4.8 | 12.9 | 0.00 | 0.18 | 0.00 | 40 | 984.6 |
| 20260504192209 | 21 | 10 | 6.4 | 22.5 | 0.00 | 0.18 | 0.00 | 40 | 984.6 |
| 20260504191708 | 20 | 228 | 8.0 | 22.5 | 0.00 | 0.18 | 0.00 | 40 | 984.7 |
| 20260504191211 | 20 | 216 | 8.0 | 19.3 | 0.00 | 0.18 | 0.00 | 40 | 984.7 |
| 20260504190954 | 20 | 114 | 8.0 | 19.3 | 0.00 | 0.18 | 0.00 | 39 | 984.8 |
| 20260504190205 | 21 | 205 | 6.4 | 17.7 | 0.00 | 0.18 | 0.00 | 37 | 984.8 |
| 20260504185705 | 20 | 197 | 6.4 | 20.9 | 0.00 | 0.18 | 0.00 | 41 | 984.9 |
| 20260504185204 | 20 | 197 | 6.4 | 20.9 | 0.00 | 0.18 | 0.00 | 39 | 984.9 |
| 20260504184703 | 20 | 207 | 8.0 | 17.7 | 0.00 | 0.18 | 0.00 | 41 | 985.0 |
| 20260504184204 | 20 | 165 | 8.0 | 17.7 | 0.00 | 0.18 | 0.00 | 44 | 985.1 |
| 20260504183704 | 20 | 200 | 8.0 | 17.7 | 0.00 | 0.18 | 0.00 | 41 | 985.1 |
| 20260504183203 | 20 | 292 | 6.4 | 14.5 | 0.00 | 0.18 | 0.00 | 40 | 985.0 |
| 20260504182701 | 20 | 205 | 6.4 | 17.7 | 0.00 | 0.18 | 0.00 | 40 | 985.2 |
| 20260504182201 | 20 | 210 | 6.4 | 17.7 | 0.00 | 0.18 | 0.00 | 42 | 985.4 |
| 20260504181701 | 20 | 215 | 6.4 | 17.7 | 0.00 | 0.18 | 0.00 | 39 | 985.4 |
| 20260504181200 | 20 | 179 | 6.4 | 17.7 | 0.00 | 0.18 | 0.00 | 40 | 985.5 |
| 20260504180700 | 20 | 300 | 8.0 | 16.1 | 0.00 | 0.18 | 0.00 | 40 | 985.5 |
| 20260504180200 | 20 | 260 | 8.0 | 16.1 | 0.00 | 0.18 | 0.00 | 44 | 985.7 |
| 20260504175701 | 20 | 160 | 6.4 | 16.1 | 0.00 | 0.18 | 0.00 | 42 | 985.6 |
| 20260504175201 | 19 | 293 | 6.4 | 17.7 | 0.00 | 0.18 | 0.00 | 42 | 985.8 |
| 20260504174701 | 19 | 340 | 6.4 | 17.7 | 0.00 | 0.18 | 0.00 | 40 | 985.8 |
| 20260504174201 | 20 | 252 | 6.4 | 17.7 | 0.00 | 0.18 | 0.00 | 43 | 985.9 |
| 20260504173701 | 20 | 274 | 6.4 | 14.5 | 0.00 | 0.18 | 0.00 | 40 | 985.9 |
| 20260504173202 | 19 | 221 | 6.4 | 12.9 | 0.00 | 0.18 | 0.00 | 42 | 986.0 |
| 20260504172701 | 19 | 337 | 6.4 | 17.7 | 0.00 | 0.18 | 0.00 | 42 | 986.1 |
| 20260504172201 | 18 | 285 | 8.0 | 17.7 | 0.00 | 0.18 | 0.00 | 43 | 986.1 |
| 20260504171701 | 18 | 239 | 6.4 | 14.5 | 0.00 | 0.18 | 0.00 | 41 | 986.2 |
| 20260504171202 | 19 | 193 | 6.4 | 16.1 | 0.00 | 0.18 | 0.00 | 40 | 986.2 |
| 20260504170701 | 18 | 288 | 6.4 | 16.1 | 0.00 | 0.18 | 0.00 | 43 | 986.4 |
| 20260504170202 | 19 | 312 | 6.4 | 16.1 | 0.00 | 0.18 | 0.00 | 42 | 986.5 |
| 20260504160202 | 17 | 204 | 6.4 | 17.7 | 0.00 | 0.18 | 0.00 | 44 | 987.0 |
| 20260504150702 | 17 | 265 | 4.8 | 14.5 | 0.00 | 0.18 | 0.00 | 43 | 987.7 |
| 20260504150202 | 16 | 211 | 6.4 | 12.9 | 0.00 | 0.18 | 0.00 | 44 | 987.7 |
| 20260504141201 | 16 | 351 | 3.2 | 12.9 | 0.00 | 0.18 | 0.00 | 48 | 987.8 |
| 20260504140701 | 15 | 272 | 3.2 | 9.7 | 0.00 | 0.18 | 0.00 | 49 | 987.8 |
| 20260504140201 | 15 | 232 | 3.2 | 12.9 | 0.00 | 0.18 | 0.00 | 48 | 987.8 |
| 20260504130741 | 12 | 174 | 3.2 | 9.7 | 0.00 | 0.18 | 0.00 | 59 | 988.1 |
| 20260504130729 | 13 | 356 | 3.2 | 9.7 | 0.00 | 0.18 | 0.00 | 56 | 988.1 |
| 20260504120201 | 11 | 212 | 3.2 | 8.0 | 0.00 | 0.18 | 0.00 | 63 | 988.1 |
| 20260504110702 | 7 | 349 | 1.6 | 4.8 | 0.00 | 0.18 | 0.00 | 61 | 988.3 |
| 20260504110202 | 7 | 301 | 1.6 | 3.2 | 0.00 | 0.18 | 0.00 | 62 | 988.3 |
| 20260504100202 | 6 | 0 | 1.6 | 3.2 | 0.00 | 0.18 | 0.00 | 63 | 988.3 |
| 20260504081649 | 7 | 2 | 1.6 | 3.2 | 0.00 | 0.18 | 0.00 | 60 | 988.4 |
| 20260504081153 | 7 | 32 | 1.6 | 3.2 | 0.00 | 0.18 | 0.00 | 59 | 988.4 |
| 20260504080649 | 7 | 37 | 3.2 | 4.8 | 0.00 | 0.18 | 0.00 | 59 | 988.4 |
| 20260504080148 | 6 | 12 | 1.6 | 4.8 | 0.00 | 0.18 | 0.00 | 60 | 988.3 |
| 20260504070132 | 6 | 39 | 0.0 | 1.6 | 0.00 | 0.18 | 0.00 | 63 | 988.4 |
| 20260504060130 | 6 | 341 | 1.6 | 3.2 | 0.00 | 0.18 | 0.00 | 64 | 988.5 |